Regional Weather Roundup
Issued by NWS

Home | Current Version | Previous Version | Graphics & Text | Print | Product List | Glossary On
Versions: 1 2 3 4 5 6 7 8 9 10 11 12 13 14 15 16 17 18 19 20 21 22 23 24 25 26 27 28 29 30 31 32 33 34 35 36 37 38 39 40 41 42 43 44 45 46 47 48 49 50
000
ASUS43 KDMX 261007
RWRIA

WEATHER ROUNDUP FOR IOWA
NATIONAL WEATHER SERVICE DES MOINES IA
500 AM CDT SAT JUL 26 2014

NOTE: "FAIR" INDICATES FEW OR NO CLOUDS BELOW 12,000 FEET WITH NO
SIGNIFICANT WEATHER AND/OR OBSTRUCTIONS TO VISIBILITY.

* - THESE STATIONS ARE NOT NWS STATIONS...THUS NOT UNDER NWS
QUALITY CONTROL.  THEY ALSO DO NOT REPORT WEATHER SUCH
AS PRECIPITATION OR FOG.

IAZ001>003-012>014-020>022-031>034-043>046-261100-
   NORTHWEST IOWA

CITY           SKY/WX    TMP DP  RH WIND       PRES   REMARKS
CARROLL *      CLOUDY    66  66 100 CALM      29.84S FOG
CHEROKEE *     MOCLDY    68  68 100 NE3       29.82F FOG
DENISON *      PTCLDY    70  70 100 VRB3      29.79F FOG
LE MARS *      CLEAR     70  68  94 NE8       29.79F
ORANGE CITY *  FOG       70  66  88 E5        29.83S VSB 3/4
SHELDON *      CLOUDY    68  68 100 E5        29.83R FOG
SIOUX CITY     MOCLDY    70  68  93 S6        29.80R
SPENCER        CLOUDY    70  68  93 CALM      29.85R FOG
STORM LAKE *   FOG       66  66 100 SE5       29.84F VSB 0
$$

IAZ055>058-069>071-079>083-090>094-261100-
   SOUTHWEST IOWA

CITY           SKY/WX    TMP DP  RH WIND       PRES   REMARKS
ATLANTIC *     MOCLDY    70  70 100 CALM      29.81F FOG
AUDUBON *      FOG       72  70  94 NE5       29.84F VSB 1/2
CLARINDA *     CLEAR     72  72 100 CALM      29.82R
COUNCIL BLFS *   N/A     72  72 100 E5        29.80S
CRESTON *      PTCLDY    70  70 100 NE5       29.82S FOG
HARLAN  *      PTCLDY    70  70 100 E3        29.83F FOG
LAMONI         PTCLDY    72  71  97 CALM      29.81R
RED OAK *      CLOUDY    72  70  94 CALM      29.81S
SHENANDOAH *   CLEAR     72  70  94 NE3       29.81S
$$

IAZ047>049-059>061-072>074-084-261100-
   CENTRAL IOWA

CITY           SKY/WX    TMP DP  RH WIND       PRES   REMARKS
AMES           MOCLDY    67  66  97 CALM      29.82R FOG
ANKENY *       CLEAR     68  68 100 N5        29.81R
CHARITON *     MOCLDY    68  68 100 N3        29.81R FOG
DES MOINES     MOCLDY    71  68  90 NE6       29.80R
GRINNELL*      MOCLDY    66  63  88 E5        29.82R
KNOXVILLE *    CLEAR     68  66  94 CALM      29.80R
MARSHALLTOWN   PTCLDY    66  64  93 E3        29.81R
PELLA *        MOCLDY    68  66  94 CALM      29.81R
PERRY *        FOG       68  68 100 N3        29.83R VSB 1
$$

IAZ004>006-015-016-023>025-035-036-261100-
   NORTH CENTRAL IOWA

CITY           SKY/WX    TMP DP  RH WIND       PRES   REMARKS
ALGONA *       CLOUDY    70  70 100 CALM      29.84S FOG
CLARION *      CLEAR     66  66 100 CALM      29.84S
ESTHERVILLE    PTCLDY    69  68  96 N5        29.85R FOG
FORT DODGE *   PTCLDY    66  64  94 CALM      29.85R
MASON CITY     FOG       70  70 100 S3        29.85S VSB 1/4
FOREST CITY *  CLOUDY    68  68 100 CALM      29.84S FOG
IOWA FALLS *   CLOUDY    70  68  94 CALM      29.85R FOG
$$

IAZ007>011-017>019-026>030-037>042-050>054-066-261100-
   NORTHEAST IOWA

CITY           SKY/WX    TMP DP  RH WIND       PRES   REMARKS
CEDAR RAPIDS   CLOUDY    68  63  84 E8        29.81S
CHARLES CITY * CLOUDY    66  66 100 CALM      29.85R
CLINTON *      CLOUDY    66  61  82 E5        29.85S
DECORAH *      CLOUDY    64  64 100 CALM      29.83S FOG
DUBUQUE        CLOUDY    65  63  93 SE5       29.84F
MONTICELLO *   CLOUDY    66  64  94 E3        29.83S
OELWEIN *      CLOUDY    66  64  94 SE5       29.83F
WATERLOO       CLOUDY    68  64  87 CALM      29.82R
$$

IAZ064-065-067-068-078-261100-
   EAST CENTRAL IOWA

CITY           SKY/WX    TMP DP  RH WIND       PRES   REMARKS
DAVENPORT      MOCLDY    66  62  87 E6        29.82S
IOWA CITY        N/A     67  64  90 NE5       29.82
MT. PLEASANT * PTCLDY    70  66  88 S6        29.79R
MUSCATINE *    MOCLDY    68  64  88 CALM      29.80S
QUAD CITIES    CLEAR     65  62  90 E5        29.80F
$$

IAZ062-063-075>077-085>089-095>099-261100-
   SOUTHEAST IOWA

CITY           SKY/WX    TMP DP  RH WIND       PRES   REMARKS
BURLINGTON     CLEAR     69  66  90 S10       29.79S
FAIRFIELD *    CLEAR     66  64  94 N6        29.80R
FORT MADISON * CLEAR     72  70  94 S9        29.80S
KEOKUK *       CLEAR     73  70  88 S10G17    29.79S
OSKALOOSA *    MOCLDY    66  66 100 NE5       29.80S
CENTERVILLE *  CLEAR     75  75 100 W5        29.81R
OTTUMWA        MOCLDY    67  65  93 NE5       29.79R
WASHINGTON *   MOCLDY    64  64 100 NE6       29.80R
$$

ABBREVIATIONS USED IN REMARKS
   TC - TEMPERATURES IN CELSIUS
  WCI - WIND CHILL INDEX
   HX - HEAT INDEX
  VSB - VISIBILITY
$$



USA.gov is the U.S. government's official web portal to all federal, state and local government web resources and services.